Regional Weather Roundup
Issued by NWS Sioux Falls, SD

Home | Current Version | Previous Version | Graphics & Text | Print | Product List | Glossary On
Versions: 1 2 3 4 5 6 7 8 9 10 11 12 13 14 15 16 17 18 19 20 21 22 23 24 25 26 27 28 29 30 31 32 33 34 35 36 37 38 39 40 41 42 43 44 45 46 47 48 49 50
000
ASUS43 KFSD 270810
RWRFSD

WEATHER ROUNDUP FOR SE SOUTH DAKOTA/SW MINNESOTA/NW IOWA
NATIONAL WEATHER SERVICE SIOUX FALLS SD
200 AM CST SAT DEC 27 2014

NOTE: "FAIR" INDICATES FEW OR NO CLOUDS BELOW 12,000 FEET WITH NO
SIGNIFICANT WEATHER AND OR OBSTRUCTIONS TO VISIBILITY.


SDZ038>040-050-052>070-270900-
SOUTHEAST SOUTH DAKOTA

CITY           SKY/WX    TMP DP  RH WIND       PRES   REMARKS
CHAMBERLAIN    CLOUDY    15  11  85 NW7       30.17S WCI   5
HURON          CLOUDY    13  10  88 N14       30.17S WCI  -2
MADISON        LGT SNOW  18  18 100 N10       30.09S WCI   6
MITCHELL       LGT SNOW  17  14  88 NW15      30.17S VSB 1   WCI   2
SIOUX FALLS    LGT SNOW  21  18  88 N15       30.08S FOG     WCI   8
WINNER         CLOUDY    17  12  80 W7        30.16S WCI   8
YANKTON        CLOUDY    21  18  86 NW18      30.13S WCI   6
$$

MNZ071-072-080-081-089-090-097-098-270900-
SOUTHWEST MINNESOTA

CITY           SKY/WX    TMP DP  RH WIND       PRES   REMARKS
FAIRMONT       CLOUDY    27  21  80 N15       29.99R WCI  15
JACKSON        LGT SNOW  27  23  86 N10G16    30.01R WCI  17
LUVERNE        LGT SNOW  23  21  93 N12       30.07S WCI  12
MARSHALL       CLOUDY    19  14  79 N18       30.08S WCI   4
MONTEVIDEO     LGT SNOW  19  19 100 N13G18    30.11S WCI   7
PIPESTONE      CLOUDY    19  18  93 N10G16    30.05S WCI   8
REDWOOD FALLS  LGT SNOW  24  21  88 N12       30.06S FOG     WCI  13
TRACY          LGT SNOW  22  20  93 N15       30.07R WCI   8
WINDOM         LGT SNOW  23  21  93 NW16G25   30.02R WCI  10
WORTHINGTON    CLOUDY    21 -24  12 N15       30.03S WCI   8
$$

IAZ001>003-012>014-020>022-031-032-NEZ013-014-SDZ071-270900-
NORTHWEST IOWA

CITY           SKY/WX    TMP DP  RH WIND       PRES   REMARKS
CHEROKEE       LGT SNOW  25  25  99 N10       30.03S WCI  15
DENISON        LGT SNOW  27  27 100 NW13      30.00R WCI  16
ESTHERVILLE    LGT SNOW  25  23  92 N18       30.00R VSB 1   WCI  11
LE MARS        LGT SNOW  25  23  93 NW12      30.08S WCI  14
ORANGE CITY    LGT SNOW  25  21  86 N10       30.05S VSB 1   WCI  15
SHELDON        LGT SNOW  23  23 100 N14       30.04R WCI  11
SIOUX CITY     LGT SNOW  25  22  88 NW16      30.07S FOG     WCI  12
SPENCER        LGT SNOW  26  22  84 N15       30.02R VSB 1   WCI  14
STORM LAKE     LGT SNOW  25  25 100 N14       30.00S WCI  13
$$

ABBREVIATIONS USED IN REMARKS
   TC - TEMPERATURE IN CELSIUS
  WCI - WIND CHILL INDEX
   HX - HEAT INDEX
  VSB - VISIBILITY




USA.gov is the U.S. government's official web portal to all federal, state and local government web resources and services.